STARLINK-31924, 59904

Orbit data source: Space-Track

STARLINK-31924, 59904 is a payload satellite owned by SpaceX/Seattle (US) in LEO that was launched on Tue, 28 May 2024 UTC via an FALCON 9 launch vehicle from the Air Force Eastern Test Range (AFETR). Payload-class satellites include a variety of spacecraft equipped with specific instruments for various scientific and technological missions. These include communications satellites like Starlink; space stations such as the ISS; scientific satellites like the Hubble; Earth observation satellites from companies like Planet Labs, Umbra, and HawkEye 360; GPS; miniature CubeSats for education and research; and military/defense satellites.

Loading next visibility...
Identifier
59904, 2024-100V
Orbit
LEO
Country
Flag of USUS
Related business
Manufacturer
SpaceX/Seattle
Mission
Operational spacecraft
Bus & Motor
STARLINK V2M, Unknown motor
Mass
730 kg wet, ~700 kg dry
Launch date (UTC)
2024-05-28 (1 year ago)
Launch vehicle
FALCON 9
Launch site
Air Force Eastern Test Range (AFETR)
Object type
Payload
Rocket body
Debris
Shape & HBR
Unknown
Radar Cross Section
Large (>1 m²)

Expand to show TLE details & history
Last TLE update: 1 day ago

TLE from 1 day ago
0 STARLINK-31924
1 59904U 24100V   25259.66732431 -.00000384  00000-0 -44306-5 0  9998
2 59904  43.0050  28.0747 0001138 270.1886  89.8835 15.27584718 74532
Epoch: 2025-09-16T16:00Z
TLE epoch observation values (Epoch: 2025-09-16T16:00:56.82Z)
Latitude
-0.00004°
Longitude
151.98358°
Altitude
482.809 km
Speed
7.626 km/s
True Right ascension
01h 52m 17s
True Declination
0° 00' 00"
Sunlit
Object was in full shadow at epoch
Visualization orbit readout
Latitude
Unknown
Longitude
Unknown
Altitude
Unknown
Speed
Unknown
Apparent Right ascension
Unknown
Apparent Declination
Unknown
Sunlit
N/A
Visualization observer readout
Local Sidereal Time
15:40:06
Azimuth
Unknown
Elevation
Unknown
Doppler factor
Unknown
Orbital elements
Apogee altitude
485.76 km
Perigee altitude
484.198 km
Semi-major axis
6,863.116 km
Eccentricity
0.00011
Inclination
43.005°
RAAN
28.0747°
Arg. of periapsis
270.1886°
True anomaly
89.89654°
Mean anomaly
89.8835°
Eccentric anomaly
89.89002°
Mean motion
3.81734 °/min
Orbital period
94.31 mins
BSTAR
-0.0000044306
Loading maneuver chart data...
Computing Atmospheric mass density...
Loading historical data...
Loading historical data...
Loading historical data...
Loading historical data...
Loading historical data...
Loading historical data...
Loading historical data...

Documentation

Showing up to 5 results
|